Location: Jackson Park
(37.2862°N, 79.9123°W)
Time: 10:45:02
(UTC+00:00)

Vanguard 2 Rocket - Pass Details

Date: 10 May 2026
Orbit: 553 x 3286 km, 32.9° (Epoch: 11 June)

Event Time Altitude Azimuth Distance (km) Brightness Sun altitude
Rises 23:05:41 0° 283° (WNW) 7,244 13.6 12.7°
Reaches altitude 10° 23:10:52 10° 279° (W) 6,231 14.3 11.7°
Maximum altitude 23:28:50 46° 214° (SW) 3,449 10.1 8.2°
Drops below altitude 10° 23:41:38 10° 146° (SE) 4,526 10.0 5.8°
Sets 23:44:46 0° 140° (SE) 5,197 10.2 5.2°
